RH
60 60 62 62 61 60 63 65 67 67 67 67 68 68 69 70 72 71 72 73 75 75 76 78 79 78 77 75 77 78 80 83 93 73 69 64 67 66 60 60 63 61 59
60 62 63 62 62 62 63 66 67 63 64 64 63 63 63 66 70 72 73 74 75 76 76 78 77 73 78 76 75 78 78 76 85 88 71 70 70 66 66 69 63 58 60
65 65 65 64 64 64 65 64 65 63 63 62 62 63 63 66 67 68 69 69 70 72 76 79 79 80 79 78 78 79 78 74 78 88 87 73 72 70 70 69 67 65 58
70 68 67 66 66 65 65 65 65 65 64 64 64 65 66 64 71 75 74 71 68 68 73 74 75 79 81 81 80 80 78 81 80 83 83 82 77 71 78 79 73 68 67
68 70 69 70 69 69 69 68 67 68 67 68 66 66 66 65 74 78 78 74 72 70 71 71 73 79 85 80 77 79 83 87 85 87 84 82 82 78 77 74 80 74 69
69 70 71 72 70 71 70 69 67 69 70 69 69 69 69 64 81 80 76 73 73 74 74 73 72 78 78 81 80 81 81 82 86 84 85 88 86 84 80 83 84 86 86
70 72 73 72 71 71 67 66 68 67 69 70 68 66 68 70 75 75 81 79 78 77 77 78 74 72 80 82 84 84 81 82 83 84 88 84 85 79 84 88 88 90 88
72 72 72 72 68 68 67 65 69 68 68 67 66 65 67 59 71 72 79 81 80 79 79 79 81 80 79 82 86 84 82 78 77 76 80 79 80 81 88 89 92 91 89
68 65 67 68 67 66 66 65 67 66 67 66 66 63 63 58 71 69 76 79 79 82 82 78 79 80 82 79 77 84 82 80 78 82 84 86 85 84 84 91 97 99 93
61 61 62 65 63 64 64 64 69 68 67 67 58 62 66 60 67 67 68 78 77 81 80 78 81 74 77 74 74 81 83 74 72 70 72 81 79 80 85 86 93 100 99
60 62 65 66 63 62 66 64 64 64 67 60 55 52 57 61 63 67 65 75 80 83 80 78 76 78 77 74 72 74 80 69 68 69 73 70 75 80 81 84 89 98 100
61 64 64 63 55 60 66 61 58 57 55 52 54 53 53 55 64 68 66 65 71 82 81 78 78 82 73 73 70 69 72 70 72 75 80 78 76 78 76 81 90 93 91
59 58 57 56 55 58 61 55 56 57 53 48 52 55 53 58 61 68 67 66 70 77 78 79 74 74 76 77 78 70 65 70 75 81 83 85 82 82 83 92 89 93 99
52 52 52 54 54 55 63 55 54 56 55 52 53 56 59 59 64 65 68 75 80 79 79 80 79 78 75 75 74 70 69 71 76 80 81 78 82 88 83 82 97 97 98
47 48 51 53 56 56 56 52 54 54 57 54 59 58 63 68 66 67 74 80 80 79 74 80 81 78 79 77 77 76 77 73 78 77 81 81 78 82 82 83 89 98 97
44 49 54 55 55 58 59 59 64 67 67 69 72 77 78 78 78 76 75 74 73 71 75 83 83 82 83 79 78 78 76 80 80 82 83 85 87 87 87 90 96 96 91
49 51 52 53 52 54 57 58 57 56 61 64 67 69 70 71 72 72 72 73 71 69 78 81 85 83 83 84 84 85 87 83 85 91 91 90 90 90 88 88 91 93 92
60 59 52 51 56 57 58 58 60 61 59 60 65 66 68 70 72 73 72 69 75 74 81 85 86 82 84 88 88 89 86 87 87 91 92 92 92 92 94 94 93 91 90
54 55 62 68 66 64 64 66 64 65 67 69 72 70 70 68 67 67 68 72 79 78 81 80 78 81 83 81 82 86 86 87 86 89 92 93 93 95 97 94 92 83 81
57 60 59 59 61 66 70 72 73 76 75 74 74 71 68 73 73 69 72 77 80 80 80 81 81 84 82 85 88 88 88 86 89 89 89 93 91 93 94 92 89 92 88
59 59 62 71 73 72 72 73 72 74 75 74 71 68 70 79 81 81 80 80 82 80 80 81 83 80 77 80 83 90 94 90 86 87 89 95 97 96 88 91 94 92 92
60 61 63 62 66 72 71 73 74 75 75 77 73 73 73 74 80 82 82 82 82 83 82 83 84 82 86 94 94 91 92 91 89 93 94 85 84 82 81 92 91 89 95
62 62 62 63 66 66 72 76 80 82 80 79 78 78 78 81 78 77 80 82 85 85 83 84 91 96 84 82 87 92 94 92 88 87 92 95 92 86 90 95 94 96 95
72 68 67 66 69 71 74 75 78 78 81 84 83 81 81 70 66 65 67 73 83 84 84 91 90 88 79 84 86 85 90 93 96 94 92 95 94 93 88 90 92 89 87
75 75 74 74 74 73 76 79 83 84 83 81 83 82 75 75 74 74 70 78 86 88 90 88 89 86 87 84 81 82 79 81 86 94 96 96 96 93 93 92 92 88 93
80 79 78 79 83 82 81 81 84 87 90 88 88 86 80 79 76 74 76 80 93 91 90 90 89 90 86 79 80 83 82 83 91 94 97 97 97 95 93 94 95 95 93
Wind_Speed
6 5 6 4 4 4 3 3 2 2 4 4 4 4 4 4 4 4 4 4 4 4 4 4 5 5 4 4 3 4 5 5 7 9 6 7 10 8 9 8 7 7 5
6 6 6 5 5 5 4 3 3 3 3 3 4 4 4 4 4 4 4 4 4 5 5 4 6 3 6 4 4 5 5 5 4 10 9 6 7 8 9 8 6 5 6
7 7 6 6 5 5 4 4 4 4 4 4 4 4 4 4 5 5 4 4 4 4 4 5 5 5 5 4 4 5 5 4 5 5 7 5 4 4 6 6 6 7 5
7 7 6 6 5 5 4 4 4 4 4 4 3 4 4 3 4 4 4 4 4 4 4 4 4 4 5 6 5 6 6 5 6 6 7 7 6 5 4 6 7 4 7
7 7 6 6 6 6 5 5 4 4 4 3 3 3 3 3 3 4 3 4 4 4 4 5 5 6 6 6 5 6 6 6 6 6 7 7 7 7 7 5 5 7 7
7 7 7 7 6 5 5 4 4 3 3 3 3 3 3 3 6 7 5 4 4 4 5 6 5 6 7 8 8 7 6 6 7 7 7 7 8 7 7 7 6 4 5
9 8 8 8 7 6 5 5 4 3 3 3 2 3 3 3 6 7 7 3 3 4 4 5 5 5 6 5 7 7 6 7 7 7 9 8 9 9 8 8 8 5 5
8 7 6 6 6 6 5 4 4 3 3 2 2 2 1 1 6 7 7 4 3 4 4 4 4 6 7 8 6 7 7 7 6 4 6 9 8 9 7 8 7 5 4
9 8 7 7 7 6 5 5 3 3 3 2 1 1 2 2 5 5 4 3 3 3 3 4 5 5 9 11 8 9 10 8 8 11 11 11 13 15 11 4 4 4 5
9 9 8 7 7 6 5 5 3 2 3 2 1 1 2 2 4 5 3 1 2 3 4 4 7 8 11 11 8 8 9 9 10 11 8 8 9 11 12 5 6 6 5
8 8 7 6 7 6 5 4 4 4 3 3 2 2 3 2 3 4 3 0 2 3 3 4 4 10 12 13 12 7 8 10 10 8 7 7 7 8 6 4 4 4 5
9 9 8 7 5 5 6 5 4 4 3 3 2 2 2 2 4 4 5 5 4 2 4 5 6 10 12 11 10 13 13 12 5 7 7 7 6 6 7 7 7 7 7
10 9 8 7 5 5 6 5 3 3 3 2 2 3 3 1 3 7 8 7 7 4 4 8 15 14 14 10 11 13 12 5 6 6 7 7 6 6 6 6 7 8 8
9 8 6 6 6 5 4 3 4 4 4 4 3 4 3 3 3 3 3 4 7 6 7 7 9 12 15 13 11 8 6 6 6 7 7 6 6 5 6 5 6 7 7
7 6 5 4 5 5 4 5 5 5 5 4 4 4 3 4 4 5 6 4 4 6 9 3 4 6 7 7 7 7 6 7 7 7 7 8 7 6 7 5 6 6 7
7 5 5 4 4 4 4 3 9 11 11 12 12 9 5 12 13 14 14 14 14 14 6 5 6 7 8 8 8 8 7 9 7 7 7 7 8 8 8 6 6 7 8
6 5 4 5 4 4 4 5 4 2 7 10 12 12 13 13 13 13 13 14 15 12 6 7 7 7 8 7 7 8 9 8 8 7 8 8 8 8 10 8 7 7 9
4 9 5 5 4 4 4 4 4 4 4 3 7 10 11 14 14 15 14 12 7 6 6 7 7 8 7 7 8 8 10 9 9 8 8 8 9 9 9 8 7 8 9
4 4 4 3 4 5 4 4 4 4 5 5 3 7 11 15 14 14 14 7 7 7 7 7 8 8 8 7 7 8 9 9 11 9 8 8 8 8 9 8 9 15 16
6 10 7 4 4 4 4 4 4 5 5 5 5 6 4 5 4 5 5 6 7 8 7 8 7 7 7 7 8 8 9 10 9 9 10 8 8 8 10 10 10 10 9
5 5 10 5 5 5 5 5 5 5 5 6 6 6 11 7 7 7 7 6 7 8 8 8 7 7 7 8 8 8 9 10 10 11 11 9 7 9 10 11 9 10 10
5 5 5 6 5 5 5 5 5 5 6 6 6 6 12 7 7 7 7 8 7 8 7 8 8 7 6 7 8 10 10 11 11 10 8 10 9 10 12 12 9 11 9
6 6 5 5 6 8 6 6 6 5 6 6 6 6 5 6 7 8 9 8 8 7 7 7 7 7 7 8 8 9 10 11 11 11 12 9 9 12 12 11 9 7 9
5 6 6 6 5 6 6 6 6 9 8 7 7 7 8 7 7 9 10 10 8 8 8 7 8 10 10 9 8 10 10 10 8 9 14 13 12 11 11 12 11 12 12
5 5 6 6 7 7 6 7 7 7 7 7 8 8 7 6 7 8 9 9 9 10 9 8 7 9 11 15 15 17 18 25 19 18 12 14 15 16 13 11 11 13 15
5 6 6 5 6 6 7 7 7 6 7 7 7 7 7 6 7 9 9 10 8 8 9 7 8 12 14 14 18 19 25 26 21 24 15 11 11 11 10 13 15 9 11
Wind_Direction
139 139 144 135 121 114 112 101 67 48 28 26 16 17 17 17 11 11 3 356 321 308 293 282 278 270 270 275 268 266 258 242 265 282 283 295 294 297 309 314 311 310 304
153 143 135 130 129 121 108 95 84 76 57 41 34 34 22 22 28 26 12 7 341 333 326 313 300 305 288 287 280 273 268 269 271 285 294 289 283 306 305 301 307 301 302
144 141 141 138 132 128 126 114 98 93 70 56 52 38 26 18 29 21 10 4 351 343 338 329 320 320 307 306 291 283 283 284 272 268 285 290 291 289 305 304 301 301 295
149 149 146 146 141 132 123 118 113 104 89 62 50 48 36 29 37 14 4 359 356 359 356 355 344 337 321 316 306 303 299 292 289 283 283 283 288 302 281 293 303 305 313
150 151 154 151 148 145 140 136 122 104 95 90 75 59 43 50 25 21 17 18 13 11 21 14 4 345 348 340 323 319 310 304 304 297 294 293 293 299 305 316 296 304 300
160 164 162 158 155 152 140 133 120 109 99 97 84 66 53 37 19 32 42 22 23 24 16 12 6 9 359 354 348 335 317 300 295 294 294 292 297 300 302 306 304 308 313
167 166 167 163 160 161 153 144 140 132 134 117 84 55 48 13 17 24 41 30 22 21 22 12 2 0 359 345 348 347 335 322 299 291 289 290 291 297 294 297 290 281 275
168 168 163 164 160 158 151 156 157 155 150 138 99 61 81 16 16 23 36 24 23 15 13 7 351 341 338 339 339 334 322 313 310 305 283 291 289 297 277 274 283 281 270
172 173 172 168 163 163 169 170 167 161 156 159 181 104 36 5 355 16 49 30 19 3 351 348 341 337 328 339 332 325 323 316 313 308 301 304 319 317 306 289 263 247 282
178 177 172 167 165 173 174 172 166 172 169 172 168 199 248 276 326 354 22 17 338 336 336 339 340 333 329 336 331 320 316 316 319 320 318 317 331 317 309 296 299 285 278
165 163 165 171 173 174 168 167 165 172 178 188 211 243 256 246 294 311 324 265 306 318 318 316 315 322 322 326 327 317 294 306 312 313 309 309 317 317 311 292 257 247 270
161 164 170 172 174 168 167 168 177 180 195 212 234 260 247 263 278 287 289 285 280 283 293 293 294 301 316 313 319 314 313 315 306 304 301 299 305 306 310 302 290 269 241
164 171 170 165 165 161 173 179 179 192 210 234 248 267 267 240 264 288 289 285 286 277 264 280 296 302 304 301 300 301 311 298 293 289 291 288 284 288 295 293 297 283 260
165 166 161 159 165 175 180 181 192 203 218 227 236 255 269 266 253 244 253 270 279 281 277 278 278 285 293 289 300 295 280 275 273 272 272 270 278 274 281 286 288 292 296
153 149 157 171 180 182 202 202 209 221 206 212 224 226 244 269 260 261 263 259 253 256 285 255 272 275 285 289 286 279 279 279 274 270 270 272 275 273 276 274 270 272 271
151 161 173 170 182 193 199 228 235 239 241 242 246 237 244 245 267 274 278 280 284 290 286 273 279 281 283 289 288 289 283 281 275 274 274 274 274 273 276 272 267 263 271
159 155 173 187 192 193 203 218 244 256 263 258 256 259 262 264 264 265 270 273 278 286 271 278 279 285 287 285 285 282 284 279 279 271 276 275 275 273 272 274 273 281 274
166 193 192 196 197 204 211 220 220 230 250 266 257 249 261 265 266 266 265 274 269 258 253 261 270 269 268 280 284 290 295 292 285 276 275 277 278 277 278 272 265 273 279
191 213 201 194 200 216 214 220 226 237 247 247 241 259 258 266 267 262 259 248 251 258 243 245 248 256 265 273 275 275 277 284 287 281 267 260 261 269 270 268 269 274 281
215 222 211 199 209 210 210 227 232 232 240 249 245 250 265 292 270 261 232 235 244 252 252 246 246 244 259 268 269 269 275 277 277 275 270 258 261 259 265 266 268 268 273
205 212 222 216 211 216 213 218 228 229 238 245 250 236 247 247 252 254 262 254 252 257 260 252 252 252 263 264 268 267 268 272 272 267 264 261 267 272 270 261 257 263 265
210 210 207 220 217 214 224 221 225 231 237 248 264 259 267 263 265 267 266 266 264 257 258 260 262 264 272 268 267 271 269 271 270 264 271 270 267 272 274 263 256 261 254
212 213 214 216 215 232 235 222 221 226 238 247 259 267 256 253 267 276 277 275 269 268 264 262 263 260 264 273 265 261 267 271 271 269 269 264 281 273 264 258 258 256 260
205 211 218 222 217 220 226 228 224 232 236 238 241 243 241 253 255 267 278 280 275 268 260 249 258 257 273 269 270 273 270 274 280 282 277 273 273 274 275 269 265 264 263
208 215 218 222 225 230 231 229 223 224 230 239 244 244 247 244 256 267 279 273 272 269 263 262 257 263 264 273 281 283 281 280 277 274 269 262 259 258 256 260 259 261 258
222 224 227 222 224 225 229 232 233 228 229 235 241 247 248 250 267 276 266 265 258 261 260 260 264 264 272 285 286 279 282 284 283 281 280 271 262 254 250 251 254 253 260